Weather History for KP28 - May, 2013

Change the Weather History Date:

Thursday, May 2, 2013

  Actual Average Record
Temperature  
Mean Temperature 44 °F 62 °F  
Max Temperature 53 °F 74 °F 96 °F (1968)
Min Temperature 34 °F 50 °F 32 °F (2014)
Degree Days  
Heating Degree Days 21 5  
Month to date heating degree days 34 10  
Since 1 July heating degree days 4439 4395  
Cooling Degree Days 0 2  
Month to date cooling degree days 0 3  
Year to date cooling degree days 21 27  
Moisture  
Dew Point 30 °F    
Average Humidity 66    
Maximum Humidity 100    
Minimum Humidity 32    
Precipitation  
Precipitation 0.07 in 0.11 in 1.78 in (1914)
Month to date precipitation 0.29 0.21  
Year to date precipitation 8.04 6.65  
Snow  
Snow 0.00 in 0.00 in - ()
Month to date snowfall 0.0 0.0  
Since 1 July snowfall 25.0 8.5  
Snow Depth 0.00 in    
Sea Level Pressure  
Sea Level Pressure 30.45 in    
Wind  
Wind Speed 21 mph (North)    
Max Wind Speed 40 mph    
Max Gust Speed 52 mph    
T = Trace of Precipitation, MM = Missing Value Source: NWS Daily Summary

Daily Weather History Graph

Daily Weather History Graph

Search for Another Location

Airport or City:

Trip Planner

Search our weather history database for the weather conditions in past years. The results will help you decide how hot, cold, wet, or windy it might be!

Date:

Astronomy

May. 02, 2013 Rise Set
Actual Time 6:37 AM CDT 8:24 PM CDT
Civil Twilight 6:09 AM CDT 8:53 PM CDT
Nautical Twilight 5:35 AM CDT 9:27 PM CDT
Astronomical Twilight 4:59 AM CDT 10:03 PM CDT
Moon 2:16 AM CDT (5/2) 1:25 PM CDT (5/2)
Length of Visible Light 14h 43m
Length of Day
13h 46m
Waning Gibbous, 47% of the Moon is Illuminated
May 2
Waning Gibbous
May 9
New
May 17
First Quarter
May 24
Full
May 31
Last Quarter

Hourly Weather History & Observations

Time (CDT) Temp. Windchill Dew Point Humidity Pressure Visibility Wind Dir Wind Speed Gust Speed Precip Events Conditions
12:56 AM 37.0 °F 24.5 °F 34.0 °F 89% 30.32 in - North 29.9 mph 39.1 mph N/A   Unknown
1:56 AM 37.0 °F 24.5 °F 34.0 °F 89% 30.32 in - North 29.9 mph 40.3 mph N/A   Unknown
2:56 AM 37.0 °F 25.4 °F 34.0 °F 89% 30.35 in - North 25.3 mph 41.4 mph N/A   Unknown
3:56 AM 36.0 °F 24.4 °F 34.0 °F 93% 30.39 in - North 23.0 mph 33.4 mph N/A   Unknown
4:56 AM 35.1 °F 22.2 °F 33.1 °F 92% 30.38 in - North 27.6 mph 38.0 mph 0.01 in   Unknown
5:56 AM 35.1 °F 22.2 °F 33.1 °F 92% 30.42 in - North 27.6 mph 38.0 mph 0.01 in   Unknown
6:56 AM 34.0 °F 21.5 °F 33.1 °F 96% 30.46 in - North 24.2 mph 31.1 mph 0.01 in   Unknown
7:56 AM 34.0 °F 22.4 °F 33.1 °F 96% 30.50 in - North 20.7 mph 32.2 mph 0.03 in   Unknown
8:56 AM 36.0 °F 24.7 °F 33.1 °F 89% 30.51 in - North 21.9 mph 29.9 mph 0.01 in   Unknown
9:56 AM 37.9 °F 25.9 °F 32.0 °F 79% 30.51 in - North 28.8 mph 39.1 mph N/A   Unknown
10:56 AM 39.0 °F 27.6 °F 30.9 °F 73% 30.54 in - North 27.6 mph 39.1 mph N/A   Unknown
11:56 AM 43.0 °F 32.5 °F 32.0 °F 65% 30.53 in - North 29.9 mph 36.8 mph N/A   Unknown
12:56 PM 48.0 °F - 28.0 °F 46% 30.49 in - North 32.2 mph 50.6 mph N/A   Unknown
1:56 PM 50.0 °F - 25.0 °F 38% 30.48 in - North 28.8 mph 49.5 mph N/A   Unknown
2:56 PM 50.0 °F - 25.0 °F 38% 30.48 in - North 29.9 mph 42.6 mph N/A   Unknown
3:56 PM 51.1 °F - 26.1 °F 38% 30.47 in - North 25.3 mph 39.1 mph N/A   Unknown
4:56 PM 53.1 °F - 25.0 °F 34% 30.46 in - NNE 25.3 mph 39.1 mph N/A   Unknown
5:56 PM 52.0 °F - 27.0 °F 38% 30.45 in - North 26.5 mph 36.8 mph N/A   Unknown
6:56 PM 51.1 °F - 26.1 °F 38% 30.45 in - North 19.6 mph 33.4 mph N/A   Unknown
7:56 PM 48.0 °F - 27.0 °F 44% 30.46 in - NNE 18.4 mph - N/A   Unknown
8:56 PM 43.0 °F 38.2 °F 28.9 °F 58% 30.47 in - NNE 8.1 mph - N/A   Unknown
9:56 PM 37.9 °F 34.4 °F 30.0 °F 73% 30.47 in - North 4.6 mph - N/A   Unknown
10:56 PM 37.0 °F 33.3 °F 30.0 °F 76% 30.46 in - North 4.6 mph - N/A   Unknown
11:56 PM 34.0 °F 29.8 °F 30.0 °F 85% 30.45 in - North 4.6 mph - N/A   Unknown